Weather History for Talkeetna, AK

Change the Weather History Date:

Thursday, November 7, 2013

  Actual Average Record
Temperature  
Mean Temperature 23 °F -  
Max Temperature 27 °F 28 °F 46 °F (2002)
Min Temperature 19 °F 11 °F -29 °F (1956)
Degree Days  
Heating Degree Days 42    
Moisture  
Dew Point 9 °F    
Average Humidity 54    
Maximum Humidity 65    
Minimum Humidity 38    
Precipitation  
Precipitation 0.00 in - - ()
Sea Level Pressure  
Sea Level Pressure 29.88 in    
Wind  
Wind Speed 7 mph (North)    
Max Wind Speed 13 mph    
Max Gust Speed 23 mph    
Visibility 10 miles    
Events      
Averages and records for this station are not official NWS values.
T = Trace of Precipitation, MM = Missing Value Source: NWS Daily Summary

Daily Weather History Graph

Daily Weather History Graph

Search for Another Location

Airport:

Trip Planner

Search our weather history database for the weather conditions in past years. The results will help you decide how hot, cold, wet, or windy it might be!

Date:

Astronomy

Nov. 07, 2013 Rise Set
Actual Time 8:52 AM AKST 4:34 PM AKST
Civil Twilight 8:00 AM AKST 5:26 PM AKST
Nautical Twilight 7:06 AM AKST 6:20 PM AKST
Astronomical Twilight 6:13 AM AKST 7:12 PM AKST
Moon 1:25 PM AKST (11/7) 8:45 PM AKST (11/7)
Length of Visible Light 9h 25m
Length of Day
7h 42m
Waxing Crescent, 24% of the Moon is Illuminated
Nov 7
Waxing Crescent
Nov 9
First Quarter
Nov 17
Full
Nov 25
Last Quarter
Dec 2
New

Hourly Weather History & Observations

Time (AKST) Temp. Windchill Dew Point Humidity Pressure Visibility Wind Dir Wind Speed Gust Speed Precip Events Conditions
12:53 AM 19.9 °F 13.4 °F 8.1 °F 60% 29.96 in 10.0 mi NNW 4.6 mph - N/A   Clear
1:53 AM 21.0 °F 14.6 °F 10.0 °F 63% 29.95 in 10.0 mi NNW 4.6 mph - N/A   Clear
2:53 AM 21.0 °F 13.4 °F 10.0 °F 63% 29.93 in 10.0 mi North 5.8 mph - N/A   Clear
3:53 AM 23.0 °F 11.7 °F 8.1 °F 53% 29.91 in 10.0 mi North 11.5 mph - N/A   Clear
4:53 AM 23.0 °F 12.4 °F 8.1 °F 53% 29.90 in 10.0 mi North 10.4 mph 19.6 mph N/A   Clear
5:53 AM 24.1 °F 13.1 °F 7.0 °F 48% 29.90 in 10.0 mi North 11.5 mph 18.4 mph N/A   Clear
6:53 AM 23.0 °F 11.7 °F 7.0 °F 50% 29.88 in 10.0 mi NNE 11.5 mph 20.7 mph N/A   Clear
7:53 AM 23.0 °F 11.1 °F 7.0 °F 50% 29.87 in 10.0 mi North 12.7 mph 20.7 mph N/A   Clear
8:53 AM 23.0 °F 12.4 °F 8.1 °F 53% 29.86 in 10.0 mi North 10.4 mph 17.3 mph N/A   Scattered Clouds
9:53 AM 23.0 °F 12.4 °F 8.1 °F 53% 29.86 in 10.0 mi North 10.4 mph 23.0 mph N/A   Scattered Clouds
10:53 AM 24.1 °F 13.7 °F 8.1 °F 51% 29.86 in 10.0 mi NNE 10.4 mph 19.6 mph N/A   Scattered Clouds
11:53 AM 25.0 °F 15.5 °F 8.1 °F 49% 29.86 in 10.0 mi NNE 9.2 mph 17.3 mph N/A   Clear
12:53 PM 25.0 °F 17.1 °F 9.0 °F 51% 29.85 in 10.0 mi North 6.9 mph - N/A   Scattered Clouds
1:53 PM 27.0 °F 18.0 °F 10.0 °F 49% 29.85 in 10.0 mi NNE 9.2 mph 16.1 mph N/A   Scattered Clouds
2:53 PM 27.0 °F 18.7 °F 9.0 °F 47% 29.84 in 10.0 mi NNE 8.1 mph - N/A   Scattered Clouds
3:53 PM 26.1 °F 20.5 °F 10.0 °F 51% 29.84 in 10.0 mi North 4.6 mph - N/A   Scattered Clouds
4:53 PM 25.0 °F 18.1 °F 10.0 °F 53% 29.83 in 10.0 mi North 5.8 mph - N/A   Scattered Clouds
5:53 PM 23.0 °F 17.0 °F 10.0 °F 58% 29.84 in 10.0 mi North 4.6 mph - N/A   Clear
6:53 PM 21.9 °F 14.5 °F 10.0 °F 60% 29.85 in 10.0 mi North 5.8 mph - N/A   Clear
7:53 PM 21.9 °F 14.5 °F 10.0 °F 60% 29.85 in 10.0 mi North 5.8 mph - N/A   Clear
8:53 PM 21.0 °F 12.4 °F 10.0 °F 63% 29.86 in 10.0 mi NNW 6.9 mph - N/A   Clear
9:53 PM 21.0 °F 13.4 °F 9.0 °F 60% 29.87 in 10.0 mi North 5.8 mph - N/A   Clear
10:53 PM 19.9 °F 13.4 °F 10.0 °F 65% 29.88 in 10.0 mi North 4.6 mph - N/A   Clear
11:53 PM 19.9 °F 13.4 °F 9.0 °F 62% 29.90 in 10.0 mi Variable 4.6 mph - N/A   Clear